Year,Month,Day,Hour,Minute,Value (Times are PST for temperature in C)
2012,10,06,00,00,5.70
2012,10,06,00,01,5.70
2012,10,06,00,02,5.70
2012,10,06,00,03,5.80
2012,10,06,00,04,5.80
2012,10,06,00,05,5.80
2012,10,06,00,06,5.80
2012,10,06,00,07,5.80
2012,10,06,00,08,5.80
2012,10,06,00,09,5.80
2012,10,06,00,10,5.80
2012,10,06,00,11,5.80
2012,10,06,00,12,5.80
2012,10,06,00,13,5.70
2012,10,06,00,14,5.70
2012,10,06,00,15,5.70
2012,10,06,00,16,5.70
2012,10,06,00,17,5.70
2012,10,06,00,18,5.70
2012,10,06,00,19,5.70
2012,10,06,00,20,5.70
2012,10,06,00,21,5.70
2012,10,06,00,22,5.70
2012,10,06,00,23,5.70
2012,10,06,00,24,5.60
2012,10,06,00,25,5.60
2012,10,06,00,26,5.60
2012,10,06,00,27,5.60
2012,10,06,00,28,5.60
2012,10,06,00,29,5.60
2012,10,06,00,30,5.60
2012,10,06,00,31,5.50
2012,10,06,00,32,5.50
2012,10,06,00,33,5.50
2012,10,06,00,34,5.50
2012,10,06,00,35,5.50
2012,10,06,00,36,5.50
2012,10,06,00,37,5.50
2012,10,06,00,38,5.50
2012,10,06,00,39,5.40
2012,10,06,00,40,5.40
2012,10,06,00,41,5.40
2012,10,06,00,42,5.40
2012,10,06,00,43,5.40
2012,10,06,00,44,5.40
2012,10,06,00,45,5.30
2012,10,06,00,46,5.30
2012,10,06,00,47,5.30
2012,10,06,00,48,5.30
2012,10,06,00,49,5.30
2012,10,06,00,50,5.20
2012,10,06,00,51,5.20
2012,10,06,00,52,5.20
2012,10,06,00,53,5.20
2012,10,06,00,54,5.10
2012,10,06,00,55,5.10
2012,10,06,00,56,5.10
2012,10,06,00,57,5.10
2012,10,06,00,58,5.10
2012,10,06,00,59,5.10
2012,10,06,01,00,5.00
2012,10,06,01,01,5.00
2012,10,06,01,02,5.00
2012,10,06,01,03,5.00
2012,10,06,01,04,4.90
2012,10,06,01,05,4.90
2012,10,06,01,06,4.90
2012,10,06,01,07,4.90
2012,10,06,01,08,4.90
2012,10,06,01,09,4.80
2012,10,06,01,10,4.80
2012,10,06,01,11,4.80
2012,10,06,01,12,4.80
2012,10,06,01,13,4.80
2012,10,06,01,14,4.80
2012,10,06,01,15,4.80
2012,10,06,01,16,4.70
2012,10,06,01,17,4.70
2012,10,06,01,18,4.70
2012,10,06,01,19,4.70
2012,10,06,01,20,4.70
2012,10,06,01,21,4.70
2012,10,06,01,22,4.70
2012,10,06,01,23,4.70
2012,10,06,01,24,4.60
2012,10,06,01,25,4.60
2012,10,06,01,26,4.60
2012,10,06,01,27,4.60
2012,10,06,01,28,4.60
2012,10,06,01,29,4.60
2012,10,06,01,30,4.60
2012,10,06,01,31,4.60
2012,10,06,01,32,4.60
2012,10,06,01,33,4.60
2012,10,06,01,34,4.60
2012,10,06,01,35,4.60
2012,10,06,01,36,4.70
2012,10,06,01,37,4.70
2012,10,06,01,38,4.70
2012,10,06,01,39,4.70
2012,10,06,01,40,4.60
2012,10,06,01,41,4.60
2012,10,06,01,42,4.60
2012,10,06,01,43,4.60
2012,10,06,01,44,4.60
2012,10,06,01,45,4.60
2012,10,06,01,46,4.60
2012,10,06,01,47,4.60
2012,10,06,01,48,4.60
2012,10,06,01,49,4.60
2012,10,06,01,50,4.60
2012,10,06,01,51,4.60
2012,10,06,01,52,4.60
2012,10,06,01,53,4.60
2012,10,06,01,54,4.60
2012,10,06,01,55,4.60
2012,10,06,01,56,4.70
2012,10,06,01,57,4.70
2012,10,06,01,58,4.70
2012,10,06,01,59,4.70
2012,10,06,02,00,4.70
2012,10,06,02,01,4.70
2012,10,06,02,02,4.80
2012,10,06,02,03,4.80
2012,10,06,02,04,4.80
2012,10,06,02,05,4.80
2012,10,06,02,06,4.80
2012,10,06,02,07,4.80
2012,10,06,02,08,4.80
2012,10,06,02,09,4.80
2012,10,06,02,10,4.80
2012,10,06,02,11,4.80
2012,10,06,02,12,4.80
2012,10,06,02,13,4.80
2012,10,06,02,14,4.80
2012,10,06,02,15,4.80
2012,10,06,02,16,4.70
2012,10,06,02,17,4.70
2012,10,06,02,18,4.70
2012,10,06,02,19,4.70
2012,10,06,02,20,4.70
2012,10,06,02,21,4.70
2012,10,06,02,22,4.70
2012,10,06,02,23,4.70
2012,10,06,02,24,4.60
2012,10,06,02,25,4.60
2012,10,06,02,26,4.60
2012,10,06,02,27,4.60
2012,10,06,02,28,4.60
2012,10,06,02,29,4.60
2012,10,06,02,30,4.60
2012,10,06,02,31,4.60
2012,10,06,02,32,4.60
2012,10,06,02,33,4.60
2012,10,06,02,34,4.60
2012,10,06,02,35,4.60
2012,10,06,02,36,4.60
2012,10,06,02,37,4.60
2012,10,06,02,38,4.60
2012,10,06,02,39,4.60
2012,10,06,02,40,4.60
2012,10,06,02,41,4.60
2012,10,06,02,42,4.50
2012,10,06,02,43,4.50
2012,10,06,02,44,4.50
2012,10,06,02,45,4.50
2012,10,06,02,46,4.40
2012,10,06,02,47,4.40
2012,10,06,02,48,4.40
2012,10,06,02,49,4.40
2012,10,06,02,50,4.40
2012,10,06,02,51,4.40
2012,10,06,02,52,4.40
2012,10,06,02,53,4.40
2012,10,06,02,54,4.40
2012,10,06,02,55,4.40
2012,10,06,02,56,4.40
2012,10,06,02,57,4.40
2012,10,06,02,58,4.40
2012,10,06,02,59,4.40
2012,10,06,03,00,4.40
2012,10,06,03,01,4.40
2012,10,06,03,02,4.40
2012,10,06,03,03,4.40
2012,10,06,03,04,4.40
2012,10,06,03,05,4.40
2012,10,06,03,06,4.40
2012,10,06,03,07,4.40
2012,10,06,03,08,4.40
2012,10,06,03,09,4.40
2012,10,06,03,10,4.40
2012,10,06,03,11,4.40
2012,10,06,03,12,4.40
2012,10,06,03,13,4.40
2012,10,06,03,14,4.50
2012,10,06,03,15,4.50
2012,10,06,03,16,4.60
2012,10,06,03,17,4.60
2012,10,06,03,18,4.60
2012,10,06,03,19,4.60
2012,10,06,03,20,4.60
2012,10,06,03,21,4.60
2012,10,06,03,22,4.60
2012,10,06,03,23,4.50
2012,10,06,03,24,4.50
2012,10,06,03,25,4.50
2012,10,06,03,26,4.40
2012,10,06,03,27,4.40
2012,10,06,03,28,4.40
2012,10,06,03,29,4.30
2012,10,06,03,30,4.30
2012,10,06,03,31,4.30
2012,10,06,03,32,4.30
2012,10,06,03,33,4.30
2012,10,06,03,34,4.20
2012,10,06,03,35,4.20
2012,10,06,03,36,4.20
2012,10,06,03,37,4.20
2012,10,06,03,38,4.20
2012,10,06,03,39,4.10
2012,10,06,03,40,4.10
2012,10,06,03,41,4.10
2012,10,06,03,42,4.10
2012,10,06,03,43,4.10
2012,10,06,03,44,4.10
2012,10,06,03,45,4.10
2012,10,06,03,46,4.10
2012,10,06,03,47,4.10
2012,10,06,03,48,4.10
2012,10,06,03,49,4.10
2012,10,06,03,50,4.10
2012,10,06,03,51,4.10
2012,10,06,03,52,4.10
2012,10,06,03,53,4.10
2012,10,06,03,54,4.10
2012,10,06,03,55,4.10
2012,10,06,03,56,4.10
2012,10,06,03,57,4.10
2012,10,06,03,58,4.10
2012,10,06,03,59,4.10
2012,10,06,04,00,4.10
2012,10,06,04,01,4.10
2012,10,06,04,02,4.10
2012,10,06,04,03,4.10
2012,10,06,04,04,4.10
2012,10,06,04,05,4.10
2012,10,06,04,06,4.10
2012,10,06,04,07,4.10
2012,10,06,04,08,4.10
2012,10,06,04,09,4.10
2012,10,06,04,10,4.10
2012,10,06,04,11,4.10
2012,10,06,04,12,4.10
2012,10,06,04,13,4.10
2012,10,06,04,14,4.10
2012,10,06,04,15,4.10
2012,10,06,04,16,4.10
2012,10,06,04,17,4.10
2012,10,06,04,18,4.10
2012,10,06,04,19,4.10
2012,10,06,04,20,4.10
2012,10,06,04,21,4.10
2012,10,06,04,22,4.10
2012,10,06,04,23,4.10
2012,10,06,04,24,4.00
2012,10,06,04,25,4.00
2012,10,06,04,26,4.00
2012,10,06,04,27,4.00
2012,10,06,04,28,3.90
2012,10,06,04,29,3.90
2012,10,06,04,30,3.90
2012,10,06,04,31,3.90
2012,10,06,04,32,3.90
2012,10,06,04,33,3.90
2012,10,06,04,34,3.90
2012,10,06,04,35,3.90
2012,10,06,04,36,3.90
2012,10,06,04,37,3.90
2012,10,06,04,38,3.90
2012,10,06,04,39,3.90
2012,10,06,04,40,3.90
2012,10,06,04,41,3.90
2012,10,06,04,42,3.80
2012,10,06,04,43,3.80
2012,10,06,04,44,3.80
2012,10,06,04,45,3.80
2012,10,06,04,46,3.80
2012,10,06,04,47,3.80
2012,10,06,04,48,3.80
2012,10,06,04,49,3.80
2012,10,06,04,50,3.80
2012,10,06,04,51,3.90
2012,10,06,04,52,3.90
2012,10,06,04,53,4.00
2012,10,06,04,54,4.00
2012,10,06,04,55,4.10
2012,10,06,04,56,4.10
2012,10,06,04,57,4.10
2012,10,06,04,58,4.10
2012,10,06,04,59,4.10
2012,10,06,05,00,4.10
2012,10,06,05,01,4.10
2012,10,06,05,02,4.10
2012,10,06,05,03,4.10
2012,10,06,05,04,4.10
2012,10,06,05,05,4.00
2012,10,06,05,06,4.00
2012,10,06,05,07,4.00
2012,10,06,05,08,3.90
2012,10,06,05,09,3.90
2012,10,06,05,10,3.90
2012,10,06,05,11,4.00
2012,10,06,05,12,4.00
2012,10,06,05,13,4.10
2012,10,06,05,14,4.10
2012,10,06,05,15,4.10
2012,10,06,05,16,4.20
2012,10,06,05,17,4.20
2012,10,06,05,18,4.20
2012,10,06,05,19,4.30
2012,10,06,05,20,4.30
2012,10,06,05,21,4.40
2012,10,06,05,22,4.50
2012,10,06,05,23,4.70
2012,10,06,05,24,4.90
2012,10,06,05,25,5.20
2012,10,06,05,26,5.40
2012,10,06,05,27,5.60
2012,10,06,05,28,5.90
2012,10,06,05,29,6.10
2012,10,06,05,30,6.30
2012,10,06,05,31,6.50
2012,10,06,05,32,6.70
2012,10,06,05,33,6.90
2012,10,06,05,34,7.10
2012,10,06,05,35,7.30
2012,10,06,05,36,7.40
2012,10,06,05,37,7.50
2012,10,06,05,38,7.60
2012,10,06,05,39,7.70
2012,10,06,05,40,7.80
2012,10,06,05,41,7.90
2012,10,06,05,42,8.00
2012,10,06,05,43,8.10
2012,10,06,05,44,8.20
2012,10,06,05,45,8.30
2012,10,06,05,46,8.40
2012,10,06,05,47,8.50
2012,10,06,05,48,8.50
2012,10,06,05,49,8.60
2012,10,06,05,50,8.60
2012,10,06,05,51,8.60
2012,10,06,05,52,8.60
2012,10,06,05,53,8.60
2012,10,06,05,54,8.60
2012,10,06,05,55,8.60
2012,10,06,05,56,8.70
2012,10,06,05,57,8.70
2012,10,06,05,58,8.80
2012,10,06,05,59,8.80
2012,10,06,06,00,8.80
2012,10,06,06,01,8.80
2012,10,06,06,02,8.90
2012,10,06,06,03,8.90
2012,10,06,06,04,9.00
2012,10,06,06,05,9.00
2012,10,06,06,06,9.10
2012,10,06,06,07,9.10
2012,10,06,06,08,9.20
2012,10,06,06,09,9.20
2012,10,06,06,10,9.20
2012,10,06,06,11,9.30
2012,10,06,06,12,9.20
2012,10,06,06,13,9.20
2012,10,06,06,14,9.30
2012,10,06,06,15,9.30
2012,10,06,06,16,9.30
2012,10,06,06,17,9.30
2012,10,06,06,18,9.30
2012,10,06,06,19,9.40
2012,10,06,06,20,9.40
2012,10,06,06,21,9.40
2012,10,06,06,22,9.40
2012,10,06,06,23,9.40
2012,10,06,06,24,9.40
2012,10,06,06,25,9.40
2012,10,06,06,26,9.40
2012,10,06,06,27,9.40
2012,10,06,06,28,9.40
2012,10,06,06,29,9.40
2012,10,06,06,30,9.40
2012,10,06,06,31,9.40
2012,10,06,06,32,9.40
2012,10,06,06,33,9.40
2012,10,06,06,34,9.40
2012,10,06,06,35,9.40
2012,10,06,06,36,9.40
2012,10,06,06,37,9.40
2012,10,06,06,38,9.40
2012,10,06,06,39,9.40
2012,10,06,06,40,9.50
2012,10,06,06,41,9.50
2012,10,06,06,42,9.60
2012,10,06,06,43,9.60
2012,10,06,06,44,9.60
2012,10,06,06,45,9.60
2012,10,06,06,46,9.60
2012,10,06,06,47,9.60
2012,10,06,06,48,9.60
2012,10,06,06,49,9.60
2012,10,06,06,50,9.60
2012,10,06,06,51,9.60
2012,10,06,06,52,9.60
2012,10,06,06,53,9.60
2012,10,06,06,54,9.60
2012,10,06,06,55,9.60
2012,10,06,06,56,9.60
2012,10,06,06,57,9.60
2012,10,06,06,58,9.60
2012,10,06,06,59,9.60
2012,10,06,07,00,9.60
2012,10,06,07,01,9.60
2012,10,06,07,02,9.60
2012,10,06,07,03,9.50
2012,10,06,07,04,9.50
2012,10,06,07,05,9.50
2012,10,06,07,06,9.50
2012,10,06,07,07,9.40
2012,10,06,07,08,9.40
2012,10,06,07,09,9.40
2012,10,06,07,10,9.40
2012,10,06,07,11,9.50
2012,10,06,07,12,9.50
2012,10,06,07,13,9.50
2012,10,06,07,14,9.50
2012,10,06,07,15,9.50
2012,10,06,07,16,9.40
2012,10,06,07,17,9.40
2012,10,06,07,18,9.40
2012,10,06,07,19,9.30
2012,10,06,07,20,9.30
2012,10,06,07,21,9.30
2012,10,06,07,22,9.20
2012,10,06,07,23,9.20
2012,10,06,07,24,9.20
2012,10,06,07,25,9.10
2012,10,06,07,26,9.10
2012,10,06,07,27,9.00
2012,10,06,07,28,8.90
2012,10,06,07,29,8.90
2012,10,06,07,30,8.80
2012,10,06,07,31,8.80
2012,10,06,07,32,8.80
2012,10,06,07,33,8.80
2012,10,06,07,34,8.80
2012,10,06,07,35,8.80
2012,10,06,07,36,8.80
2012,10,06,07,37,8.80
2012,10,06,07,38,8.80
2012,10,06,07,39,8.70
2012,10,06,07,40,8.70
2012,10,06,07,41,8.60
2012,10,06,07,42,8.50
2012,10,06,07,43,8.50
2012,10,06,07,44,8.40
2012,10,06,07,45,8.30
2012,10,06,07,46,8.20
2012,10,06,07,47,8.00
2012,10,06,07,48,7.90
2012,10,06,07,49,7.80
2012,10,06,07,50,7.80
2012,10,06,07,51,7.70
2012,10,06,07,52,7.60
2012,10,06,07,53,7.50
2012,10,06,07,54,7.40
2012,10,06,07,55,7.30
2012,10,06,07,56,7.20
2012,10,06,07,57,7.20
2012,10,06,07,58,7.10
2012,10,06,07,59,7.10
2012,10,06,08,00,7.00
2012,10,06,08,01,7.00
2012,10,06,08,02,7.00
2012,10,06,08,03,6.90
2012,10,06,08,04,6.90
2012,10,06,08,05,6.90
2012,10,06,08,06,6.90
2012,10,06,08,07,7.00
2012,10,06,08,08,7.00
2012,10,06,08,09,7.00
2012,10,06,08,10,7.00
2012,10,06,08,11,7.00
2012,10,06,08,12,7.00
2012,10,06,08,13,7.00
2012,10,06,08,14,7.00
2012,10,06,08,15,7.00
2012,10,06,08,16,6.90
2012,10,06,08,17,6.90
2012,10,06,08,18,6.90
2012,10,06,08,19,6.80
2012,10,06,08,20,6.80
2012,10,06,08,21,6.80
2012,10,06,08,22,6.80
2012,10,06,08,23,6.80
2012,10,06,08,24,6.80
2012,10,06,08,25,6.80
2012,10,06,08,26,6.80
2012,10,06,08,27,6.80
2012,10,06,08,28,6.80
2012,10,06,08,29,6.80
2012,10,06,08,30,6.80
2012,10,06,08,31,6.90
2012,10,06,08,32,6.90
2012,10,06,08,33,6.90
2012,10,06,08,34,6.90
2012,10,06,08,35,6.90
2012,10,06,08,36,6.90
2012,10,06,08,37,6.90
2012,10,06,08,38,6.80
2012,10,06,08,39,6.80
2012,10,06,08,40,6.70
2012,10,06,08,41,6.70
2012,10,06,08,42,6.70
2012,10,06,08,43,6.70
2012,10,06,08,44,6.70
2012,10,06,08,45,6.70
2012,10,06,08,46,6.70
2012,10,06,08,47,6.70
2012,10,06,08,48,6.80
2012,10,06,08,49,6.80
2012,10,06,08,50,6.80
2012,10,06,08,51,6.90
2012,10,06,08,52,6.90
2012,10,06,08,53,6.90
2012,10,06,08,54,7.00
2012,10,06,08,55,7.00
2012,10,06,08,56,7.10
2012,10,06,08,57,7.10
2012,10,06,08,58,7.20
2012,10,06,08,59,7.30
2012,10,06,09,00,7.40
2012,10,06,09,01,7.40
2012,10,06,09,02,7.50
2012,10,06,09,03,7.60
2012,10,06,09,04,7.60
2012,10,06,09,05,7.70
2012,10,06,09,06,7.80
2012,10,06,09,07,7.80
2012,10,06,09,08,7.90
2012,10,06,09,09,8.00
2012,10,06,09,10,8.10
2012,10,06,09,11,8.20
2012,10,06,09,12,8.30
2012,10,06,09,13,8.40
2012,10,06,09,14,8.50
2012,10,06,09,15,8.60
2012,10,06,09,16,8.70
2012,10,06,09,17,8.90
2012,10,06,09,18,9.00
2012,10,06,09,19,9.20
2012,10,06,09,20,9.30
2012,10,06,09,21,9.40
2012,10,06,09,22,9.60
2012,10,06,09,23,9.70
2012,10,06,09,24,9.90
2012,10,06,09,25,10.00
2012,10,06,09,26,10.10
2012,10,06,09,27,10.30
2012,10,06,09,28,10.40
2012,10,06,09,29,10.40
2012,10,06,09,30,10.50
2012,10,06,09,31,10.60
2012,10,06,09,32,10.60
2012,10,06,09,33,10.70
2012,10,06,09,34,10.70
2012,10,06,09,35,10.70
2012,10,06,09,36,10.70
2012,10,06,09,37,10.80
2012,10,06,09,38,10.80
2012,10,06,09,39,10.90
2012,10,06,09,40,10.90
2012,10,06,09,41,11.00
2012,10,06,09,42,11.10
2012,10,06,09,43,11.20
2012,10,06,09,44,11.30
2012,10,06,09,45,11.40
2012,10,06,09,46,11.50
2012,10,06,09,47,11.50
2012,10,06,09,48,11.60
2012,10,06,09,49,11.70
2012,10,06,09,50,11.80
2012,10,06,09,51,11.90
2012,10,06,09,52,12.00
2012,10,06,09,53,12.10
2012,10,06,09,54,12.10
2012,10,06,09,55,12.20
2012,10,06,09,56,12.30
2012,10,06,09,57,12.30
2012,10,06,09,58,12.30
2012,10,06,09,59,12.40
2012,10,06,10,00,12.50
2012,10,06,10,01,12.60
2012,10,06,10,02,12.60
2012,10,06,10,03,12.70
2012,10,06,10,04,12.80
2012,10,06,10,05,12.80
2012,10,06,10,06,12.90
2012,10,06,10,07,12.90
2012,10,06,10,08,13.00
2012,10,06,10,09,13.10
2012,10,06,10,10,13.20
2012,10,06,10,11,13.30
2012,10,06,10,12,13.50
2012,10,06,10,13,13.60
2012,10,06,10,14,13.80
2012,10,06,10,15,13.90
2012,10,06,10,16,14.00
2012,10,06,10,17,14.10
2012,10,06,10,18,14.20
2012,10,06,10,19,14.30
2012,10,06,10,20,14.50
2012,10,06,10,21,14.60
2012,10,06,10,22,14.60
2012,10,06,10,23,14.70
2012,10,06,10,24,14.70
2012,10,06,10,25,14.80
2012,10,06,10,26,14.80
2012,10,06,10,27,14.80
2012,10,06,10,28,14.80
2012,10,06,10,29,14.80
2012,10,06,10,30,14.80
2012,10,06,10,31,14.80
2012,10,06,10,32,14.80
2012,10,06,10,33,14.90
2012,10,06,10,34,15.00
2012,10,06,10,35,15.20
2012,10,06,10,36,15.30
2012,10,06,10,37,15.30
2012,10,06,10,38,15.40
2012,10,06,10,39,15.50
2012,10,06,10,40,15.60
2012,10,06,10,41,15.70
2012,10,06,10,42,15.70
2012,10,06,10,43,15.70
2012,10,06,10,44,15.80
2012,10,06,10,45,15.80
2012,10,06,10,46,15.90
2012,10,06,10,47,15.90
2012,10,06,10,48,16.00
2012,10,06,10,49,16.10
2012,10,06,10,50,16.20
2012,10,06,10,51,16.30
2012,10,06,10,52,16.30
2012,10,06,10,53,16.40
2012,10,06,10,54,16.40
2012,10,06,10,55,16.50
2012,10,06,10,56,16.60
2012,10,06,10,57,16.70
2012,10,06,10,58,16.80
2012,10,06,10,59,16.90
2012,10,06,11,00,17.00
2012,10,06,11,01,17.10
2012,10,06,11,02,17.20
2012,10,06,11,03,17.30
2012,10,06,11,04,17.40
2012,10,06,11,05,17.50
2012,10,06,11,06,17.50
2012,10,06,11,07,17.60
2012,10,06,11,08,17.60
2012,10,06,11,09,17.60
2012,10,06,11,10,17.60
2012,10,06,11,11,17.60
2012,10,06,11,12,17.60
2012,10,06,11,13,17.60
2012,10,06,11,14,17.60
2012,10,06,11,15,17.60
2012,10,06,11,16,17.70
2012,10,06,11,17,17.70
2012,10,06,11,18,17.80
2012,10,06,11,19,17.80
2012,10,06,11,20,17.90
2012,10,06,11,21,18.00
2012,10,06,11,22,18.00
2012,10,06,11,23,18.10
2012,10,06,11,24,18.10
2012,10,06,11,25,18.20
2012,10,06,11,26,18.10
2012,10,06,11,27,18.10
2012,10,06,11,28,18.10
2012,10,06,11,29,18.20
2012,10,06,11,30,18.20
2012,10,06,11,31,18.20
2012,10,06,11,32,18.20
2012,10,06,11,33,18.20
2012,10,06,11,34,18.20
2012,10,06,11,35,18.20
2012,10,06,11,36,18.20
2012,10,06,11,37,18.20
2012,10,06,11,38,18.20
2012,10,06,11,39,18.30
2012,10,06,11,40,18.20
2012,10,06,11,41,18.20
2012,10,06,11,42,18.20
2012,10,06,11,43,18.30
2012,10,06,11,44,18.30
2012,10,06,11,45,18.30
2012,10,06,11,46,18.30
2012,10,06,11,47,18.30
2012,10,06,11,48,18.40
2012,10,06,11,49,18.40
2012,10,06,11,50,18.40
2012,10,06,11,51,18.40
2012,10,06,11,52,18.50
2012,10,06,11,53,18.40
2012,10,06,11,54,18.40
2012,10,06,11,55,18.40
2012,10,06,11,56,18.30
2012,10,06,11,57,18.30
2012,10,06,11,58,18.30
2012,10,06,11,59,18.30
2012,10,06,12,00,18.40
2012,10,06,12,01,18.50
2012,10,06,12,02,18.60
2012,10,06,12,03,18.70
2012,10,06,12,04,18.80
2012,10,06,12,05,18.90
2012,10,06,12,06,19.00
2012,10,06,12,07,19.10
2012,10,06,12,08,19.10
2012,10,06,12,09,19.10
2012,10,06,12,10,19.20
2012,10,06,12,11,19.30
2012,10,06,12,12,19.30
2012,10,06,12,13,19.30
2012,10,06,12,14,19.30
2012,10,06,12,15,19.20
2012,10,06,12,16,19.20
2012,10,06,12,17,19.30
2012,10,06,12,18,19.20
2012,10,06,12,19,19.20
2012,10,06,12,20,19.20
2012,10,06,12,21,19.20
2012,10,06,12,22,19.20
2012,10,06,12,23,19.30
2012,10,06,12,24,19.30
2012,10,06,12,25,19.40
2012,10,06,12,26,19.30
2012,10,06,12,27,19.30
2012,10,06,12,28,19.30
2012,10,06,12,29,19.30
2012,10,06,12,30,19.40
2012,10,06,12,31,19.40
2012,10,06,12,32,19.50
2012,10,06,12,33,19.60
2012,10,06,12,34,19.50
2012,10,06,12,35,19.50
2012,10,06,12,36,19.50
2012,10,06,12,37,19.50
2012,10,06,12,38,19.40
2012,10,06,12,39,19.50
2012,10,06,12,40,19.50
2012,10,06,12,41,19.60
2012,10,06,12,42,19.60
2012,10,06,12,43,19.60
2012,10,06,12,44,19.70
2012,10,06,12,45,19.70
2012,10,06,12,46,19.70
2012,10,06,12,47,19.80
2012,10,06,12,48,19.90
2012,10,06,12,49,19.90
2012,10,06,12,50,19.90
2012,10,06,12,51,19.90
2012,10,06,12,52,19.90
2012,10,06,12,53,19.80
2012,10,06,12,54,19.80
2012,10,06,12,55,19.90
2012,10,06,12,56,19.80
2012,10,06,12,57,19.90
2012,10,06,12,58,19.90
2012,10,06,12,59,19.90
2012,10,06,13,00,19.90
2012,10,06,13,01,19.90
2012,10,06,13,02,19.90
2012,10,06,13,03,19.80
2012,10,06,13,04,19.80
2012,10,06,13,05,19.80
2012,10,06,13,06,19.80
2012,10,06,13,07,19.80
2012,10,06,13,08,19.80
2012,10,06,13,09,19.80
2012,10,06,13,10,19.90
2012,10,06,13,11,20.00
2012,10,06,13,12,20.10
2012,10,06,13,13,20.20
2012,10,06,13,14,20.30
2012,10,06,13,15,20.40
2012,10,06,13,16,20.50
2012,10,06,13,17,20.60
2012,10,06,13,18,20.60
2012,10,06,13,19,20.70
2012,10,06,13,20,20.70
2012,10,06,13,21,20.70
2012,10,06,13,22,20.60
2012,10,06,13,23,20.40
2012,10,06,13,24,20.30
2012,10,06,13,25,20.30
2012,10,06,13,26,20.20
2012,10,06,13,27,20.20
2012,10,06,13,28,20.20
2012,10,06,13,29,20.30
2012,10,06,13,30,20.30
2012,10,06,13,31,20.40
2012,10,06,13,32,20.40
2012,10,06,13,33,20.50
2012,10,06,13,34,20.50
2012,10,06,13,35,20.60
2012,10,06,13,36,20.60
2012,10,06,13,37,20.60
2012,10,06,13,38,20.50
2012,10,06,13,39,20.50
2012,10,06,13,40,20.50
2012,10,06,13,41,20.60
2012,10,06,13,42,20.60
2012,10,06,13,43,20.60
2012,10,06,13,44,20.60
2012,10,06,13,45,20.70
2012,10,06,13,46,20.80
2012,10,06,13,47,20.80
2012,10,06,13,48,20.90
2012,10,06,13,49,21.10
2012,10,06,13,50,21.10
2012,10,06,13,51,21.20
2012,10,06,13,52,21.10
2012,10,06,13,53,21.10
2012,10,06,13,54,21.00
2012,10,06,13,55,21.00
2012,10,06,13,56,21.00
2012,10,06,13,57,21.00
2012,10,06,13,58,21.10
2012,10,06,13,59,21.10
2012,10,06,14,00,21.10
2012,10,06,14,01,21.00
2012,10,06,14,02,21.00
2012,10,06,14,03,21.00
2012,10,06,14,04,21.00
2012,10,06,14,05,21.00
2012,10,06,14,06,21.00
2012,10,06,14,07,20.90
2012,10,06,14,08,20.90
2012,10,06,14,09,20.90
2012,10,06,14,10,20.90
2012,10,06,14,11,21.00
2012,10,06,14,12,21.10
2012,10,06,14,13,21.20
2012,10,06,14,14,21.30
2012,10,06,14,15,21.40
2012,10,06,14,16,21.50
2012,10,06,14,17,21.60
2012,10,06,14,18,21.70
2012,10,06,14,19,21.80
2012,10,06,14,20,21.80
2012,10,06,14,21,21.80
2012,10,06,14,22,21.80
2012,10,06,14,23,21.70
2012,10,06,14,24,21.70
2012,10,06,14,25,21.70
2012,10,06,14,26,21.60
2012,10,06,14,27,21.50
2012,10,06,14,28,21.40
2012,10,06,14,29,21.30
2012,10,06,14,30,21.30
2012,10,06,14,31,21.30
2012,10,06,14,32,21.30
2012,10,06,14,33,21.30
2012,10,06,14,34,21.30
2012,10,06,14,35,21.30
2012,10,06,14,36,21.40
2012,10,06,14,37,21.40
2012,10,06,14,38,21.40
2012,10,06,14,39,21.30
2012,10,06,14,40,21.30
2012,10,06,14,41,21.30
2012,10,06,14,42,21.30
2012,10,06,14,43,21.20
2012,10,06,14,44,21.20
2012,10,06,14,45,21.20
2012,10,06,14,46,21.20
2012,10,06,14,47,21.20
2012,10,06,14,48,21.20
2012,10,06,14,49,21.20
2012,10,06,14,50,21.20
2012,10,06,14,51,21.20
2012,10,06,14,52,21.20
2012,10,06,14,53,21.20
2012,10,06,14,54,21.30
2012,10,06,14,55,21.30
2012,10,06,14,56,21.30
2012,10,06,14,57,21.40
2012,10,06,14,58,21.40
2012,10,06,14,59,21.50
2012,10,06,15,00,21.60
2012,10,06,15,01,21.60
2012,10,06,15,02,21.60
2012,10,06,15,03,21.60
2012,10,06,15,04,21.70
2012,10,06,15,05,21.70
2012,10,06,15,06,21.70
2012,10,06,15,07,21.70
2012,10,06,15,08,21.70
2012,10,06,15,09,21.70
2012,10,06,15,10,21.70
2012,10,06,15,11,21.70
2012,10,06,15,12,21.60
2012,10,06,15,13,21.60
2012,10,06,15,14,21.50
2012,10,06,15,15,21.50
2012,10,06,15,16,21.50
2012,10,06,15,17,21.50
2012,10,06,15,18,21.50
2012,10,06,15,19,21.40
2012,10,06,15,20,21.40
2012,10,06,15,21,21.40
2012,10,06,15,22,21.40
2012,10,06,15,23,21.40
2012,10,06,15,24,21.40
2012,10,06,15,25,21.40
2012,10,06,15,26,21.40
2012,10,06,15,27,21.50
2012,10,06,15,28,21.50
2012,10,06,15,29,21.50
2012,10,06,15,30,21.50
2012,10,06,15,31,21.50
2012,10,06,15,32,21.50
2012,10,06,15,33,21.50
2012,10,06,15,34,21.50
2012,10,06,15,35,21.60
2012,10,06,15,36,21.60
2012,10,06,15,37,21.70
2012,10,06,15,38,21.70
2012,10,06,15,39,21.80
2012,10,06,15,40,21.90
2012,10,06,15,41,22.00
2012,10,06,15,42,22.10
2012,10,06,15,43,22.10
2012,10,06,15,44,22.10
2012,10,06,15,45,22.10
2012,10,06,15,46,22.10
2012,10,06,15,47,22.20
2012,10,06,15,48,22.20
2012,10,06,15,49,22.20
2012,10,06,15,50,22.20
2012,10,06,15,51,22.20
2012,10,06,15,52,22.20
2012,10,06,15,53,22.10
2012,10,06,15,54,22.10
2012,10,06,15,55,22.00
2012,10,06,15,56,22.00
2012,10,06,15,57,21.90
2012,10,06,15,58,21.90
2012,10,06,15,59,21.80
2012,10,06,16,00,21.80
2012,10,06,16,01,21.90
2012,10,06,16,02,21.90
2012,10,06,16,03,21.90
2012,10,06,16,04,22.00
2012,10,06,16,05,22.00
2012,10,06,16,06,22.10
2012,10,06,16,07,22.10
2012,10,06,16,08,22.10
2012,10,06,16,09,22.10
2012,10,06,16,10,22.20
2012,10,06,16,11,22.20
2012,10,06,16,12,22.30
2012,10,06,16,13,22.30
2012,10,06,16,14,22.30
2012,10,06,16,15,22.30
2012,10,06,16,16,22.30
2012,10,06,16,17,22.30
2012,10,06,16,18,22.30
2012,10,06,16,19,22.40
2012,10,06,16,20,22.50
2012,10,06,16,21,22.50
2012,10,06,16,22,22.60
2012,10,06,16,23,22.60
2012,10,06,16,24,22.70
2012,10,06,16,25,22.70
2012,10,06,16,26,22.80
2012,10,06,16,27,22.80
2012,10,06,16,28,22.80
2012,10,06,16,29,22.80
2012,10,06,16,30,22.80
2012,10,06,16,31,22.80
2012,10,06,16,32,22.80
2012,10,06,16,33,22.80
2012,10,06,16,34,22.80
2012,10,06,16,35,22.70
2012,10,06,16,36,22.70
2012,10,06,16,37,22.60
2012,10,06,16,38,22.50
2012,10,06,16,39,22.40
2012,10,06,16,40,22.40
2012,10,06,16,41,22.40
2012,10,06,16,42,22.40
2012,10,06,16,43,22.40
2012,10,06,16,44,22.40
2012,10,06,16,45,22.40
2012,10,06,16,46,22.40
2012,10,06,16,47,22.50
2012,10,06,16,48,22.50
2012,10,06,16,49,22.60
2012,10,06,16,50,22.60
2012,10,06,16,51,22.70
2012,10,06,16,52,22.70
2012,10,06,16,53,22.80
2012,10,06,16,54,22.80
2012,10,06,16,55,22.80
2012,10,06,16,56,22.70
2012,10,06,16,57,22.70
2012,10,06,16,58,22.70
2012,10,06,16,59,22.60
2012,10,06,17,00,22.50
2012,10,06,17,01,22.50
2012,10,06,17,02,22.50
2012,10,06,17,03,22.40
2012,10,06,17,04,22.30
2012,10,06,17,05,22.30
2012,10,06,17,06,22.20
2012,10,06,17,07,22.10
2012,10,06,17,08,22.00
2012,10,06,17,09,21.90
2012,10,06,17,10,21.80
2012,10,06,17,11,21.70
2012,10,06,17,12,21.70
2012,10,06,17,13,21.60
2012,10,06,17,14,21.60
2012,10,06,17,15,21.50
2012,10,06,17,16,21.50
2012,10,06,17,17,21.50
2012,10,06,17,18,21.50
2012,10,06,17,19,21.50
2012,10,06,17,20,21.50
2012,10,06,17,21,21.50
2012,10,06,17,22,21.50
2012,10,06,17,23,21.40
2012,10,06,17,24,21.40
2012,10,06,17,25,21.40
2012,10,06,17,26,21.40
2012,10,06,17,27,21.40
2012,10,06,17,28,21.40
2012,10,06,17,29,21.30
2012,10,06,17,30,21.30
2012,10,06,17,31,21.30
2012,10,06,17,32,21.30
2012,10,06,17,33,21.20
2012,10,06,17,34,21.20
2012,10,06,17,35,21.20
2012,10,06,17,36,21.20
2012,10,06,17,37,21.10
2012,10,06,17,38,21.10
2012,10,06,17,39,21.00
2012,10,06,17,40,21.00
2012,10,06,17,41,21.00
2012,10,06,17,42,20.90
2012,10,06,17,43,20.90
2012,10,06,17,44,20.90